Time,TemperatureF,DewpointF,PressureIn,WindDirection,WindDirectionDegrees,WindSpeedMPH,WindSpeedGustMPH,Humidity,HourlyPrecipIn,Conditions,Clouds,dailyrainin,SoftwareType,DateUTC
2013-01-24 00:02:00,69.0,65.0,-100.00,NNW,333,5.0,7.0,87,0.00,,,0.00,,2013-01-24 10:02:00,
2013-01-24 00:12:00,69.0,65.0,-100.00,NNW,333,5.0,7.0,87,0.00,,,0.00,,2013-01-24 10:12:00,
2013-01-24 00:22:00,69.0,65.0,-100.00,NNW,333,5.0,7.0,87,0.00,,,0.00,,2013-01-24 10:22:00,
2013-01-24 00:32:00,69.0,65.0,-100.00,NNW,333,5.0,7.0,87,0.00,,,0.00,,2013-01-24 10:32:00,
2013-01-24 00:41:00,68.0,64.0,-100.00,South,191,1.0,6.0,88,0.00,,,0.00,,2013-01-24 10:41:00,
2013-01-24 01:02:00,68.0,64.0,-100.00,South,191,1.0,6.0,88,0.00,,,0.00,,2013-01-24 11:02:00,
2013-01-24 01:12:00,68.0,64.0,-100.00,South,191,1.0,6.0,88,0.00,,,0.00,,2013-01-24 11:12:00,
2013-01-24 01:22:00,68.0,64.0,-100.00,South,191,1.0,6.0,88,0.00,,,0.00,,2013-01-24 11:22:00,
2013-01-24 01:32:00,68.0,64.0,-100.00,South,191,1.0,6.0,88,0.00,,,0.00,,2013-01-24 11:32:00,
2013-01-24 01:41:00,69.0,66.0,-100.00,ESE,108,4.0,5.0,90,0.00,,,0.00,,2013-01-24 11:41:00,
2013-01-24 02:03:00,69.0,66.0,-100.00,ESE,108,4.0,5.0,90,0.00,,,0.00,,2013-01-24 12:03:00,
2013-01-24 02:12:00,69.0,66.0,-100.00,ESE,108,4.0,5.0,90,0.00,,,0.00,,2013-01-24 12:12:00,
2013-01-24 02:22:00,69.0,66.0,-100.00,ESE,108,4.0,5.0,90,0.00,,,0.00,,2013-01-24 12:22:00,
2013-01-24 02:32:00,69.0,66.0,-100.00,ESE,108,4.0,5.0,90,0.00,,,0.00,,2013-01-24 12:32:00,
2013-01-24 02:41:00,68.0,66.0,-100.00,SW,223,2.0,6.0,93,0.03,,,0.03,,2013-01-24 12:41:00,
2013-01-24 03:02:00,68.0,66.0,-100.00,SW,223,2.0,6.0,93,0.03,,,0.03,,2013-01-24 13:02:00,
2013-01-24 03:12:00,68.0,66.0,-100.00,SW,223,2.0,6.0,93,0.03,,,0.03,,2013-01-24 13:12:00,
2013-01-24 03:22:00,68.0,66.0,-100.00,SW,223,2.0,6.0,93,0.03,,,0.03,,2013-01-24 13:22:00,
2013-01-24 03:32:00,68.0,66.0,-100.00,SW,223,2.0,6.0,93,0.03,,,0.03,,2013-01-24 13:32:00,
2013-01-24 03:41:00,67.0,66.0,-100.00,NNW,343,3.0,6.0,97,0.01,,,-99.99,,2013-01-24 13:41:00,
2013-01-24 04:02:00,67.0,66.0,-100.00,NNW,343,3.0,6.0,97,0.01,,,-99.99,,2013-01-24 14:02:00,
2013-01-24 04:12:00,67.0,66.0,-100.00,NNW,343,3.0,6.0,97,0.01,,,-99.99,,2013-01-24 14:12:00,
2013-01-24 04:22:00,67.0,66.0,-100.00,NNW,343,3.0,6.0,97,0.01,,,-99.99,,2013-01-24 14:22:00,
2013-01-24 04:33:00,67.0,66.0,-100.00,NNW,343,3.0,6.0,97,0.01,,,-99.99,,2013-01-24 14:33:00,
2013-01-24 04:41:00,68.0,67.0,-100.00,NE,56,3.0,5.0,95,0.00,,,0.04,,2013-01-24 14:41:00,
2013-01-24 05:03:00,68.0,67.0,-100.00,NE,56,3.0,5.0,95,0.00,,,0.04,,2013-01-24 15:03:00,
2013-01-24 05:12:00,68.0,67.0,-100.00,NE,56,3.0,5.0,95,0.00,,,0.04,,2013-01-24 15:12:00,
2013-01-24 05:22:00,68.0,67.0,-100.00,NE,56,3.0,5.0,95,0.00,,,0.04,,2013-01-24 15:22:00,
2013-01-24 05:32:00,68.0,67.0,-100.00,NE,56,3.0,5.0,95,0.00,,,0.04,,2013-01-24 15:32:00,
2013-01-24 05:41:00,67.0,66.0,-100.00,NW,320,2.0,5.0,95,0.00,,,0.04,,2013-01-24 15:41:00,
2013-01-24 06:03:00,67.0,66.0,-100.00,NW,320,2.0,5.0,95,0.00,,,0.04,,2013-01-24 16:03:00,
2013-01-24 06:12:00,67.0,66.0,-100.00,NW,320,2.0,5.0,95,0.00,,,0.04,,2013-01-24 16:12:00,
2013-01-24 06:22:00,67.0,66.0,-100.00,NW,320,2.0,5.0,95,0.00,,,0.04,,2013-01-24 16:22:00,
2013-01-24 06:33:00,67.0,66.0,-100.00,NW,320,2.0,5.0,95,0.00,,,0.04,,2013-01-24 16:33:00,
2013-01-24 06:41:00,68.0,66.0,-100.00,NE,53,4.0,7.0,94,0.01,,,0.05,,2013-01-24 16:41:00,
2013-01-24 07:02:00,68.0,66.0,-100.00,NE,53,4.0,7.0,94,0.01,,,0.05,,2013-01-24 17:02:00,
2013-01-24 07:11:00,68.0,66.0,-100.00,NE,53,4.0,7.0,94,0.01,,,0.05,,2013-01-24 17:11:00,
2013-01-24 07:21:00,68.0,66.0,-100.00,NE,53,4.0,7.0,94,0.01,,,0.05,,2013-01-24 17:21:00,
2013-01-24 07:31:00,68.0,66.0,-100.00,NE,53,4.0,7.0,94,0.01,,,0.05,,2013-01-24 17:31:00,
2013-01-24 07:41:00,67.0,66.0,-100.00,NW,325,3.0,8.0,96,0.03,,,0.08,,2013-01-24 17:41:00,
2013-01-24 08:02:00,67.0,66.0,-100.00,NW,325,3.0,8.0,96,0.03,,,0.08,,2013-01-24 18:02:00,
2013-01-24 08:12:00,67.0,66.0,-100.00,NW,325,3.0,8.0,96,0.03,,,0.08,,2013-01-24 18:12:00,
2013-01-24 08:22:00,67.0,66.0,-100.00,NW,325,3.0,8.0,96,0.03,,,0.08,,2013-01-24 18:22:00,
2013-01-24 08:32:00,67.0,66.0,-100.00,NW,325,3.0,8.0,96,0.03,,,0.08,,2013-01-24 18:32:00,
2013-01-24 08:41:00,71.0,69.0,-100.00,North,350,3.0,6.0,93,0.00,,,0.08,,2013-01-24 18:41:00,
2013-01-24 09:02:00,71.0,69.0,-100.00,North,350,3.0,6.0,93,0.00,,,0.08,,2013-01-24 19:02:00,
2013-01-24 09:12:00,71.0,69.0,-100.00,North,350,3.0,6.0,93,0.00,,,0.08,,2013-01-24 19:12:00,
2013-01-24 09:21:00,71.0,69.0,-100.00,North,350,3.0,6.0,93,0.00,,,0.08,,2013-01-24 19:21:00,
2013-01-24 09:32:00,71.0,69.0,-100.00,North,350,3.0,6.0,93,0.00,,,0.08,,2013-01-24 19:32:00,
2013-01-24 09:41:00,69.0,65.0,-100.00,NE,40,5.0,10.0,88,0.01,,,0.09,,2013-01-24 19:41:00,
2013-01-24 10:11:00,69.0,65.0,-100.00,NE,40,5.0,10.0,88,0.01,,,0.09,,2013-01-24 20:11:00,
2013-01-24 10:22:00,69.0,65.0,-100.00,NE,40,5.0,10.0,88,0.01,,,0.09,,2013-01-24 20:22:00,
2013-01-24 10:32:00,69.0,65.0,-100.00,NE,40,5.0,10.0,88,0.01,,,0.09,,2013-01-24 20:32:00,
2013-01-24 10:41:00,71.0,67.0,-100.00,ENE,65,5.0,7.0,87,0.00,,,0.09,,2013-01-24 20:41:00,
2013-01-24 11:02:00,71.0,67.0,-100.00,ENE,65,5.0,7.0,87,0.00,,,0.09,,2013-01-24 21:02:00,
2013-01-24 11:12:00,71.0,67.0,-100.00,ENE,65,5.0,7.0,87,0.00,,,0.09,,2013-01-24 21:12:00,
2013-01-24 11:22:00,71.0,67.0,-100.00,ENE,65,5.0,7.0,87,0.00,,,0.09,,2013-01-24 21:22:00,
2013-01-24 11:32:00,71.0,67.0,-100.00,ENE,65,5.0,7.0,87,0.00,,,0.09,,2013-01-24 21:32:00,
2013-01-24 11:41:00,73.0,69.0,-100.00,NNW,331,5.0,7.0,87,0.03,,,-99.99,,2013-01-24 21:41:00,
2013-01-24 12:02:00,73.0,69.0,-100.00,NNW,331,5.0,7.0,87,0.03,,,-99.99,,2013-01-24 22:02:00,
2013-01-24 12:12:00,73.0,69.0,-100.00,NNW,331,5.0,7.0,87,0.03,,,-99.99,,2013-01-24 22:12:00,
2013-01-24 12:22:00,73.0,69.0,-100.00,NNW,331,5.0,7.0,87,0.03,,,-99.99,,2013-01-24 22:22:00,
2013-01-24 12:32:00,73.0,69.0,-100.00,NNW,331,5.0,7.0,87,0.03,,,-99.99,,2013-01-24 22:32:00,
2013-01-24 12:41:00,69.0,67.0,-100.00,East,101,7.0,11.0,92,0.14,,,0.26,,2013-01-24 22:41:00,
2013-01-24 13:02:00,69.0,67.0,-100.00,East,101,7.0,11.0,92,0.14,,,0.26,,2013-01-24 23:02:00,
2013-01-24 13:11:00,69.0,67.0,-100.00,East,101,7.0,11.0,92,0.14,,,0.26,,2013-01-24 23:11:00,
2013-01-24 13:21:00,69.0,67.0,-100.00,East,101,7.0,11.0,92,0.14,,,0.26,,2013-01-24 23:21:00,
2013-01-24 13:32:00,69.0,67.0,-100.00,East,101,7.0,11.0,92,0.14,,,0.26,,2013-01-24 23:32:00,
2013-01-24 13:41:00,71.0,69.0,-100.00,East,89,4.0,12.0,93,0.03,,,0.29,,2013-01-24 23:41:00,
2013-01-24 14:02:00,71.0,69.0,-100.00,East,89,4.0,12.0,93,0.03,,,0.29,,2013-01-25 00:02:00,
2013-01-24 14:12:00,71.0,69.0,-100.00,East,89,4.0,12.0,93,0.03,,,0.29,,2013-01-25 00:12:00,
2013-01-24 14:22:00,71.0,69.0,-100.00,East,89,4.0,12.0,93,0.03,,,0.29,,2013-01-25 00:22:00,
2013-01-24 14:32:00,71.0,69.0,-100.00,East,89,4.0,12.0,93,0.03,,,0.29,,2013-01-25 00:32:00,
2013-01-24 14:41:00,72.0,68.0,-100.00,North,352,7.0,10.0,86,0.00,,,0.29,,2013-01-25 00:41:00,
2013-01-24 15:01:00,72.0,68.0,-100.00,North,352,7.0,10.0,86,0.00,,,0.29,,2013-01-25 01:01:00,
2013-01-24 15:12:00,72.0,68.0,-100.00,North,352,7.0,10.0,86,0.00,,,0.29,,2013-01-25 01:12:00,
2013-01-24 15:21:00,72.0,68.0,-100.00,North,352,7.0,10.0,86,0.00,,,0.29,,2013-01-25 01:21:00,
2013-01-24 15:31:00,72.0,68.0,-100.00,North,352,7.0,10.0,86,0.00,,,0.29,,2013-01-25 01:31:00,
2013-01-24 15:41:00,76.0,69.0,-100.00,NE,55,3.0,10.0,78,0.00,,,0.29,,2013-01-25 01:41:00,
2013-01-24 16:02:00,76.0,69.0,-100.00,NE,55,3.0,10.0,78,0.00,,,0.29,,2013-01-25 02:02:00,
2013-01-24 16:11:00,76.0,69.0,-100.00,NE,55,3.0,10.0,78,0.00,,,0.29,,2013-01-25 02:11:00,
2013-01-24 16:22:00,76.0,69.0,-100.00,NE,55,3.0,10.0,78,0.00,,,0.29,,2013-01-25 02:22:00,
2013-01-24 16:32:00,76.0,69.0,-100.00,NE,55,3.0,10.0,78,0.00,,,0.29,,2013-01-25 02:32:00,
2013-01-24 16:41:00,76.0,66.0,-100.00,ESE,103,3.0,6.0,71,0.00,,,0.29,,2013-01-25 02:41:00,
2013-01-24 17:02:00,76.0,66.0,-100.00,ESE,103,3.0,6.0,71,0.00,,,0.29,,2013-01-25 03:02:00,
2013-01-24 17:12:00,76.0,66.0,-100.00,ESE,103,3.0,6.0,71,0.00,,,0.29,,2013-01-25 03:12:00,
2013-01-24 17:22:00,76.0,66.0,-100.00,ESE,103,3.0,6.0,71,0.00,,,0.29,,2013-01-25 03:22:00,
2013-01-24 17:32:00,76.0,66.0,-100.00,ESE,103,3.0,6.0,71,0.00,,,0.29,,2013-01-25 03:32:00,
2013-01-24 17:41:00,72.0,66.0,-100.00,SSE,147,7.0,12.0,81,0.00,,,0.29,,2013-01-25 03:41:00,
2013-01-24 18:02:00,72.0,66.0,-100.00,SSE,147,7.0,12.0,81,0.00,,,0.29,,2013-01-25 04:02:00,
2013-01-24 18:12:00,72.0,66.0,-100.00,SSE,147,7.0,12.0,81,0.00,,,0.29,,2013-01-25 04:12:00,
2013-01-24 18:22:00,72.0,66.0,-100.00,SSE,147,7.0,12.0,81,0.00,,,0.29,,2013-01-25 04:22:00,
2013-01-24 18:31:00,72.0,66.0,-100.00,SSE,147,7.0,12.0,81,0.00,,,0.29,,2013-01-25 04:31:00,
2013-01-24 18:41:00,69.0,64.0,-100.00,SSE,167,1.0,10.0,84,0.00,,,0.29,,2013-01-25 04:41:00,
2013-01-24 19:03:00,69.0,64.0,-100.00,SSE,167,1.0,10.0,84,0.00,,,0.29,,2013-01-25 05:03:00,
2013-01-24 19:12:00,69.0,64.0,-100.00,SSE,167,1.0,10.0,84,0.00,,,0.29,,2013-01-25 05:12:00,
2013-01-24 19:22:00,69.0,64.0,-100.00,SSE,167,1.0,10.0,84,0.00,,,0.29,,2013-01-25 05:22:00,
2013-01-24 19:32:00,69.0,64.0,-100.00,SSE,167,1.0,10.0,84,0.00,,,0.29,,2013-01-25 05:32:00,
2013-01-24 19:41:00,67.0,65.0,-100.00,WNW,290,1.0,2.0,94,0.00,,,0.29,,2013-01-25 05:41:00,
2013-01-24 20:02:00,67.0,65.0,-100.00,WNW,290,1.0,2.0,94,0.00,,,0.29,,2013-01-25 06:02:00,
2013-01-24 20:11:00,67.0,65.0,-100.00,WNW,290,1.0,2.0,94,0.00,,,0.29,,2013-01-25 06:11:00,
2013-01-24 20:21:00,67.0,65.0,-100.00,WNW,290,1.0,2.0,94,0.00,,,0.29,,2013-01-25 06:21:00,
2013-01-24 20:31:00,67.0,65.0,-100.00,WNW,290,1.0,2.0,94,0.00,,,0.29,,2013-01-25 06:31:00,
2013-01-24 20:41:00,67.0,65.0,-100.00,NNE,33,2.0,5.0,94,0.00,,,0.29,,2013-01-25 06:41:00,
2013-01-24 21:02:00,67.0,65.0,-100.00,NNE,33,2.0,5.0,94,0.00,,,0.29,,2013-01-25 07:02:00,
2013-01-24 21:11:00,67.0,65.0,-100.00,NNE,33,2.0,5.0,94,0.00,,,0.29,,2013-01-25 07:11:00,
2013-01-24 21:21:00,67.0,65.0,-100.00,NNE,33,2.0,5.0,94,0.00,,,0.29,,2013-01-25 07:21:00,
2013-01-24 21:31:00,67.0,65.0,-100.00,NNE,33,2.0,5.0,94,0.00,,,0.29,,2013-01-25 07:31:00,
2013-01-24 21:41:00,68.0,65.0,-100.00,NE,52,4.0,5.0,91,0.00,,,0.29,,2013-01-25 07:41:00,
2013-01-24 22:01:00,68.0,65.0,-100.00,NE,52,4.0,5.0,91,0.00,,,0.29,,2013-01-25 08:01:00,
2013-01-24 22:11:00,68.0,65.0,-100.00,NE,52,4.0,5.0,91,0.00,,,0.29,,2013-01-25 08:11:00,
2013-01-24 22:21:00,68.0,65.0,-100.00,NE,52,4.0,5.0,91,0.00,,,0.29,,2013-01-25 08:21:00,
2013-01-24 22:32:00,68.0,65.0,-100.00,NE,52,4.0,5.0,91,0.00,,,0.29,,2013-01-25 08:32:00,
2013-01-24 22:41:00,68.0,65.0,-100.00,NNE,27,3.0,6.0,90,0.00,,,0.29,,2013-01-25 08:41:00,
2013-01-24 23:01:00,68.0,65.0,-100.00,NNE,27,3.0,6.0,90,0.00,,,0.29,,2013-01-25 09:01:00,
2013-01-24 23:11:00,68.0,65.0,-100.00,NNE,27,3.0,6.0,90,0.00,,,0.29,,2013-01-25 09:11:00,
2013-01-24 23:21:00,68.0,65.0,-100.00,NNE,27,3.0,6.0,90,0.00,,,0.29,,2013-01-25 09:21:00,
2013-01-24 23:31:00,68.0,65.0,-100.00,NNE,27,3.0,6.0,90,0.00,,,0.29,,2013-01-25 09:31:00,
2013-01-24 23:41:00,67.0,64.0,-100.00,NE,53,4.0,6.0,90,0.00,,,0.29,,2013-01-25 09:41:00,